Regional Weather Roundup
Issued by NWS Green Bay, WI

Home | Current Version | Previous Version | Graphics & Text | Print | Product List | Glossary Off
Versions: 1 2 3 4 5 6 7 8 9 10 11 12 13 14 15 16 17 18 19 20 21 22 23 24 25 26 27 28 29 30 31 32 33 34 35 36 37 38 39 40 41 42 43 44 45 46 47 48 49 50

000
ASUS43 KGRB 202111
RWRGRB

NORTH-CENTRAL AND NORTHEAST WISCONSIN REGIONAL WEATHER ROUNDUP
NATIONAL WEATHER SERVICE GREEN BAY WI
400 PM CDT FRI APR 20 2018

WIZ005-009-010>012-018-019-202200-
NORTH CENTRAL WISCONSIN

CITY           SKY/WX    TMP DP  RH WIND       PRES   REMARKS
IRONWOOD       FAIR      56  14  19 N5        30.39F
MANITOWISH WTR FAIR      54  10  17 CALM      30.39F
ARBOR VITAE    FAIR      57   9  15 SW6       30.39F
EAGLE RIVER    FAIR      53  10  18 SW7       30.39F
LAND O LAKES   FAIR      57   6  13 S6        30.40F
RHINELANDER    FAIR      54  12  18 W3        30.40F
PHILLIPS       FAIR      53  11  18 SW7       30.41S
ANTIGO         FAIR      47  18  31 S7        30.42F
TOMAHAWK       FAIR      55   6  14 CALM      30.40F
MERRILL          N/A     53  13  20 SW9       30.44S
$$

WIZ013-073-202200-
NORTHEAST WISCONSIN

CITY           SKY/WX    TMP DP  RH WIND       PRES   REMARKS
IRON MOUNTAIN  FAIR      59  13  16 CALM      30.37F
MARINETTE      FAIR      53  16  23 S12       30.44F
OCONTO         FAIR      52  16  24 S7        30.44F
$$

WIZ017-030-035>037-045-202200-
CENTRAL WISCONSIN

CITY           SKY/WX    TMP DP  RH WIND       PRES   REMARKS
MEDFORD        FAIR      47  20  34 S8        30.43F
WAUSAU         FAIR      51  15  23 W6        30.42F
MOSINEE        PTSUNNY   52  16  24 W5        30.44F
MARSHFIELD     FAIR      54  17  23 CALM      30.42F
WISC RAPIDS    FAIR      53  11  18 W8        30.44F
STEVENS POINT  FAIR      52  13  21 CALM      30.44F
WAUPACA        FAIR      56  15  19 E8        30.45F
SHAWANO        FAIR      58  10  14 SW7       30.42F
CLINTONVILLE   FAIR      53  14  21 S7        30.44F
WAUTOMA        FAIR      54  16  22 CALM      30.44
$$

WIZ038-039-048-051-202200-
FOX VALLEY

CITY           SKY/WX    TMP DP  RH WIND       PRES   REMARKS
NWS GREEN BAY  FAIR      49  19  30 S9        30.46F
APPLETON       MOSUNNY   52  18  25 SW6       30.44F
OSHKOSH        FAIR      49  23  36 S3        30.46F
FOND DU LAC    FAIR      49  17  28 S6        30.46F
$$

WIZ022-050-052-202200-
EAST CENTRAL WISCONSIN

CITY           SKY/WX    TMP DP  RH WIND       PRES   REMARKS
EPHRAIM        FAIR      54  10  17 W7        30.43S
WASHINGTON ISL FAIR      48  21  34 S8        30.43S
STURGEON BAY   FAIR      51  18  27 S9        30.45F
MANITOWOC      FAIR      49  21  33 S8        30.48F
SHEBOYGAN      FAIR      51  28  41 S7        30.47F
$$

LMZ563-521-522-541>543-202200-
LAKESHORE

STATION/POSITION TIME  TEMP    WIND        PRES    VSBY  WAVE
                       AIR SEA DIR/SP/G                  HT/PER
                 (UTC) (F)     (DEG/KT/KT) (MB)    (MI)  (FT/S)
SHEBOYGAN LKSHOR 2100   44     170/ 12/ 13 1032.1F
KEWAUNEE LKSHORE 2048   39     170/ 10/ 11 1030.8F
NORTHPORT PIER   2040   51                 1030.1F
SISTER BAY LKSHO 2012   57        CALM       N/A
MENOMINEE LKSHOR 2048   50     180/ 10/ 13 1030.3F
$$




USA.gov is the U.S. government's official web portal to all federal, state and local government web resources and services.